Погода Бельцы

Погода Бельцы : погода сейчас, прогноз погоды и архив. Всё, что Вы хотите узнать о погоде Бельцы!

Поиск расширенной информации на нашем сайте:

Другие новости

Новости СМИ2

Главная страница сайта

Новости сайта

02.10.2013

Напоминаем, что на нашем новом сайте вы можете получить высокодетализированные прогнозы погоды по пунктам России, СНГ и мира (включающие важные для авиации метеовеличины, такие как направление и скорость ветра, видимость, явления погоды, количество и форма облачности, нижняя и верхняя граница облачности), а также ознакомиться с разнообразными материалами по авиационной метеорологии и подборкой полезных ссылок на эту тему.

Сайт Метеоцентр.Азия посвящён разработке технологий оптимизации авиаметеорологического обслуживания, включая проектирование и перспективное создание нескольких автоматизированных авиаметеорологических систем:
- система выпуска высокодетальных прогностических карт явлений погоды для нижнего воздушного пространства по России и ближнему зарубежью;
- система верификации прогнозов TAF (выпускаемых синоптиками официальных АМСГ РФ и ближнего зарубежья) и AUTOTAF (выпускаемых сайтом Метеоцентр.Азия) - выявление ошибок, онлайн-сопоставление с фактической погодой METAR, автоматическое внесение коррективов в прогнозы при резком отклонении фактической погоды от прогноза, подсчёт оправдываемости прогнозов по элементам и в целом;
- система обработки, анализа и отображения авиаметеорологической информации для применения провайдерами метеорологической информации.

Рекомендуем: ремонт промышленных стиральных машин москва

Погода Бельцы - сегодня

Время (UTC), дата Ветер
(°,м/с) 
Видим.   Явления Облачность Т
(°С)
Тd
(°С)
f(%) Тe
(°С)
Pmin
(гПа)
dP
(гПа)
Po
(мм)
O2
(г/м3)
Тmin Tmax R s Состояние
почвы
06 26.03.17 320 (СЗ) 10 км  {ливн. осадки}  9/9 600 м кучево-дожд. 
[Cb cap]
+3.3 +2 91 +4  1016  0.9  747  297  +2.9       
09 26.03.17 320 (СЗ) 10 км    9/8 600 м кучево-дожд., средняя 
[Cb cap|Ac trans]
+4.8 +0.6 74 +3  1017.2  1.3  748  296           
12 26.03.17 320 (СЗ) 10 км    9/9 600 м кучево-дожд. 
[Cb cap]
+5.2 +0.9 74 +3  1018.5  1.3  749  296           
15 26.03.17 330 (СЗ) 10 км    9/6 600 м кучево-дожд., средняя 
[Cb cap|Ac trans]
+5.2 +0.6 72 +4  1020.5  751  297           
18 26.03.17 300 (СЗ) 10 км    6/4 600 м кучево-дожд., средняя 
[Cb cap|Ac trans]
+3.7 +0.9 82 +5  1022.9  2.2  752  299    +5.8       
21 26.03.17 290 (З) 10 км    9/8 600 м кучево-дожд., средняя 
[Cb cap|Ac trans]
+2.6 +0.8 88 +3  1024.8  1.8  754  301           
00 27.03.17 290 (З) 10 км    6/0 средняя 
[Ac trans]
+1.2 -0.1 91 +2  1024.7  -0.2  754  302           
03 27.03.17 260 (З) 10 км    8/6 600 м средняя 
[Sc|Ac trans]
+0.7 -0.3 93 1024.3  -0.4  753  303           
06 27.03.17 250 (З) 10 км    9/9 600 м 
[Sc]
+2.3 -0.3 83 1022.9  -1.3  752  301  +0.3         
09 27.03.17 270 (З) 5{12}  10 км    9/6 600 м кучево-дожд., средняя 
[Cb cap|Ac trans]
+6.5 +1 68 +5  1021.7  -0.9  752  296           
12 27.03.17 270 (З) 8{14}  10 км    4/4 600 м 
[Sc]
+12.4 +1.4 47 +11  1018.4  -2.8  750  289           
15 27.03.17 290 (З) 7{14}  10 км    3/3 600 м 
[Cu hum]
+14 +1.3 42 +13  1017.5  -0.8  749  287           
18 27.03.17 290 (З) 1{14}  10 км    3/3 600 м 
[Sc]
+10.1 +2 57 +11  1019.5  1.7  750  291    +14.6       
21 27.03.17 280 (З) 10 км    ясно 
+7.9 +2.4 68 +9  1020.5  0.8  751  294           
00 28.03.17 тихо ()   10 км    ясно 
+6.3 +2.4 76 +6  1021  0.4  751  295           
03 28.03.17 240 (ЮЗ) 10 км    ясно 
+5.1 +2.1 81 +6  1020.3  -0.7  751  297           
06 28.03.17 250 (З) 10 км    8/3 600 м средняя 
[Sc|Ac trans]
+9.6 +3.8 67 +8  1019.2  -0.8  750  291  +4         
09 28.03.17 270 (З) 7{13}  10 км    6/0 средняя 
[Ac trans]
+16 +2.4 40 +15  1017.7  -1.1  749  285           
12 28.03.17 270 (З) 8{14}  10 км    4/0 средняя, верхняя 
[Ac trans|Ci fib]
+18.8 +1.3 31 +19  1016.3  -1.2  748  282           
15 28.03.17 270 (З) 6{13}  10 км    ясно 
+18.8 +1.8 32 +19  1015.9  -0.4  748  282           
18 28.03.17 270 (З) 1{13}  10 км    ясно 
+13.6 +2.2 46 +15  1018.3  2.1  750  287    +19.6       
21 28.03.17 290 (З) 10 км    ясно 
+10.5 +2.6 58 +12  1020.7  2.1  751  291           
00 29.03.17 290 (З) 10 км    ясно 
+9.3 +2.2 61 +10  1021.3  0.5  752  292           
03 29.03.17 тихо ()   10 км    ясно 
+7.1 +1 65 +7  1021.8  0.4  752  295           
06 29.03.17 тихо ()   10 км    4/0 верхняя 
[Ci fib]
+9.6 +3.8 67 +10  1022.3  0.6  752  292  +3.9         
Время (UTC), дата Ветер
(°,м/с) 
Видим.   Явления Облачность Т
(°С)
Тd
(°С)
f(%) Тe
(°С)
Pmin
(гПа)
dP
(гПа)
Po
(мм)
O2
(г/м3)
Тmin Tmax R s Состояние
почвы

Для получения пояснительной информации подведите курсор к названию столбца.

ПОГОДА Бельцы - архив

Всё, что Вы хотите узнать о погоде Бельцы - удобно и подробно!

Выберите нужную дату (начиная с 1 января 2015* года) и нажмите кнопку "Найти".
Будут отображены архивные сводки погоды по пункту Бельцы, начиная с указанной даты.


Отображать данные в формате CSV (для использования в таблицах Excel)


Внимание! Наш архив погоды предназначен исключительно для личного некоммерческого использования в познавательных целях. Если Вам необходимы официальные справки о состоянии погоды (для производственных, юридических, коммерческих и т.п. целей), обращайтесь в органы Росгидромета.

*Примечание: данная дата относится к архиву по метеостанциям СССР (Россия, СНГ, Балтия).
Архив по метеостанциям Зарубежной Европы и Азии (кроме Китая) хранится 10 дней, по другим регионам земного шара (Китай, Африка, Америка, Австралия, Океания) - 1 день.

Бельцы - район местоположения метеостанции


Название, широта, долгота, высота метеостанции:
Бельцы 47.8°ш. 27.9°д. 102 м над ур. моря [Молдавия]

Дополнительная информация

В oтличие oт бoльшинства пoгoдных сайтoв мы публикуем пoдрoбную метеoинфoрмацию в детальнoм прoфессиoнальнoм фoрмате.

Характеристики температуры и влажнoсти вoздуха измеряются на высoте 2 м в тени вдали oт зданий и деревьев.
Скoрoсть ветра измеряется на высoте 10 м (на урoвне рoста челoвека скoрoсть ветра ниже в 1.5-2 раза). Если метеoстанция нахoдится в гoрoде или в лесу, тo скoрoсть ветра занижена на 2-4 м/с пo сравнению с oткрытым местoм. Скoрoсть ветра над акватoриями крупных рек и oзёр, а также на вершинах хoлмoв на 2-5 м/с выше, чем в oбычных услoвиях.
Атмoсфернoе давление в разных тoчках местнoсти мoжет значительнo oтличаться oт давления на метеoстанции, в зависимoсти oт услoвий рельефа (при пoдъёме на 10 м давление пoнижается примернo на 1 мм рт.ст.).